Lexington Weather

Lexington, Massachusetts, USA

66°F
7/31/2021 9:08pm 
  • Lexington Conditions: Clear
  • Temperature: 65.5°F / 18.6°CColder 1.2°F than last hour.
  • Dew Point: 55.0°FIncreased 0.3°Fsince last hour.
  • Relative Humidity: 69%Increased 4.0% since last hour.
  • Wind: Wind from SSW SSW Calm, 10-min avg: 1 mph, gust: 2 mph
  • Barometer: 29.89 inRising 0.02  inHg/hr Rising Slowly
  • Visibility: 10 miles
  • Rain Today: 0.00 in
  •   

Regional Weather Roundup
for Boston / Norton, MA

        
000
ASUS41 KBOX 010014
RWRBOX

REGIONAL WEATHER ROUNDUP
NATIONAL WEATHER SERVICE TAUNTON MA
ISSUED BY NATIONAL WEATHER SERVICE NEW YORK NY
800 PM EDT SAT JUL 31 2021

NOTE:  "FAIR" INDICATES FEW OR NO CLOUDS BELOW 12,000 FEET WITH NO 
SIGNIFICANT WEATHER AND/OR OBSTRUCTIONS TO VISIBILITY. 

MAZALL-010100-
EASTERN MASSACHUSETTS
  
CITY           SKY/WX    TMP DP  RH WIND       PRES   REMARKS
BOSTON         PTCLDY    73  47  39 W12       29.91R                  
6HR MIN TEMP:  73; 6HR MAX TEMP:  79;                                

BEVERLY        CLEAR     69  31  24 W5        29.90R                  
LAWRENCE       CLEAR     69  48  47 W5        29.92S                  
BEDFORD        CLEAR     66  54  65 NW3       29.90R                  
BLUE HILL      NOT AVBL                                               
NORWOOD        CLEAR     69  50  50 W5        29.91R                  
MARSHFIELD     CLEAR     68  52  56 CALM      29.91R                  
PLYMOUTH       CLEAR     68  52  56 W5        29.92R                  
TAUNTON        CLEAR     64  55  72 CALM      29.91R                  
NEW BEDFORD    CLEAR     67  55  65 SW3       29.91R                  
$$

MAZALL-010100-
CAPE COD AND THE ISLANDS
  
CITY           SKY/WX    TMP DP  RH WIND       PRES   REMARKS
FALMOUTH       CLEAR     66  57  72 SW7       29.93R                  
HYANNIS        CLEAR     68  55  63 SW9       29.91R                  
CHATHAM        CLEAR     68  57  68 SW5       29.93R                  
PROVINCETOWN   CLEAR     67  59  75 SW10      29.92R                  
NANTUCKET      CLEAR     68  56  65 W10       29.93S                  
MARTHAS VNYRD  CLEAR     65  57  75 SW6       29.93R                  
$$
 
MAZALL-010100-
CENTRAL AND WESTERN MASSACHUSETTS
  
CITY           SKY/WX    TMP DP  RH WIND       PRES   REMARKS
WORCESTER      CLEAR     65  49  56 W5        29.95R                  
6HR MIN TEMP:  65; 6HR MAX TEMP:  70;                                

FITCHBURG      CLEAR     65  50  58 W3        29.93R                  
ORANGE         PTCLDY    66  51  58 SW5       29.94S                  
SPRINGFIELD    NOT AVBL                                               
WESTFIELD      CLEAR     69  51  52 W3        29.93S                  
NORTH ADAMS    CLEAR     64  53  67 CALM      29.94S                  
PITTSFIELD     CLEAR     63  48  58 W3        29.95S                  
$$
 
RIZALL-010100-
RHODE ISLAND
  
CITY           SKY/WX    TMP DP  RH WIND       PRES   REMARKS
PROVIDENCE     PTCLDY    70  51  51 NW5       29.93R                  
6HR MIN TEMP:  70; 6HR MAX TEMP:  76;                                

NEWPORT        CLEAR     68  54  60 VRB3      29.93R                  
BLOCK ISLAND   CLEAR     67  57  70 SW7       29.95R                  
SMITHFIELD     CLEAR     62  56  80 CALM      29.94R                  
WESTERLY       CLEAR     67  55  65 W5        29.94R                  
$$
 
CTZALL-010100-
CONNECTICUT
  
CITY           SKY/WX    TMP DP  RH WIND       PRES   REMARKS
BRADLEY INTL   PTCLDY    69  51  52 NW3       29.94R                  
6HR MIN TEMP:  69; 6HR MAX TEMP:  77;                                

HARTFORD       CLEAR     72  46  39 N6        29.93R                  
BRIDGEPORT     CLEAR     74  51  44 NW5       29.94R                  
DANBURY        CLEAR     67  54  63 SW3       29.95S                  
GROTON         CLEAR     68  57  68 W6        29.93R                  
NEW HAVEN      CLEAR     73  52  47 NW3       29.94R                  
CHESTER        FAIR      66  54  63 CALM      29.95R                  
MERIDEN        CLEAR     67  55  65 CALM      29.94R                  
WILLIMANTIC    CLEAR     67  52  58 CALM      29.94R                  
OXFORD         CLEAR     68  53  58 CALM      29.96S                  
$$

MEZ002-015-021-024-NHZ003-005-008-011-012-014-VTZ005-008-010100-
NORTHERN NEW ENGLAND
  
CITY           SKY/WX    TMP DP  RH WIND       PRES   REMARKS
PORTLAND ME    PTCLDY    68  48  48 W5        29.89R                  
6HR MIN TEMP:  68; 6HR MAX TEMP:  76;                                

BANGOR ME      PTCLDY    66  45  46 W3        29.84R                  
CONCORD NH     CLEAR     67  47  48 W5        29.90S                  
MANCHESTER NH  MOCLDY    71  48  43 W3        29.89S                  
NASHUA NH      NOT AVBL                                               
PORTSMOUTH NH  MOCLDY    68  47  46 W5        29.90S                  
JAFFREY NH     CLEAR     63  53  70 CALM      29.95R                  
KEENE NH       PTCLDY    62  56  80 CALM      29.93R                  
BURLINGTON VT  MOCLDY    68  50  52 SW5       29.91S                  
MT. WASHINGTON NOT AVBL                                               
$$

NYZ052-076-010100-
EASTERN NEW YORK
  
CITY           SKY/WX    TMP DP  RH WIND       PRES   REMARKS
ALBANY         PTCLDY    64  49  57 W7        29.94R                  
6HR MIN TEMP:  64; 6HR MAX TEMP:  70;                                

NEW YORK CITY  PTCLDY    76  51  41 NW6       29.92S                  
6HR MIN TEMP:  76; 6HR MAX TEMP:  79;                                

$$

ANZALL-010100-
MARINE OBSERVATIONS
  
STATION/POSITION TIME  TEMP    WIND        PRES    VSBY  WAVE
                       AIR SEA DIR/SP/G                  HT/PER
                 (UTC) (F)     (DEG/KT/KT) (MB)    (MI)  (FT/S)
BOSTON BUOY      0000          300/  8/  8 1012.8
BUZZARDS BAY     0000          240/ 15/ 17 1014.4
NANTUCKET SOUND  2350   70     250/ 16/ 17 1012.9          2/ 4
SW OF MONTAUK PT 2350   70 71  240/ 10/ 12 1014.0          2/ 4
MASS BAY-STELLWA 2304   67 66  200/  6/  8 1011.8   1 7/8  1/ 3
ISLE OF SHOALS   0000   70     280/  9/ 10 1011.9
S OF BLOCK IS    2356      67                N/A           3/ 4
$$

......................KEY.........................
  SKY/WX - SKY CONDITION/PRESENT WEATHER
  TMP    - TEMPERATURE IN FAHRENHEIT
  DWPT   - DEWPOINT IN FAHRENHEIT
  RH     - RELATIVE HUMIDITY IN PERCENT
  WIND   - DIRECTION AND SPEED IN MPH
  PRES   - MEAN SEA LEVEL PRESSURE IN INCHES OF HG
  WCI    - WIND CHILL INDEX
  VSB    - VISIBILITY IN MILES
  HX     - HEAT INDEX
  TC     - TEMPERATURE IN CELSIUS
  VRB    - VARIABLE WIND DIRECTION
  N/A    - NOT AVAILABLE
  
      

Other recent Regional Weather Roundups

Sat Jul 31, 8:04pm

Sat Jul 31, 7:14pm

Sat Jul 31, 6:14pm

Sat Jul 31, 5:14pm

Sat Jul 31, 5:04pm

Sat Jul 31, 4:14pm

Sat Jul 31, 4:04pm

Sat Jul 31, 3:14pm

Sat Jul 31, 3:04pm

Sat Jul 31, 2:14pm

Sat Jul 31, 1:14pm

Sat Jul 31, 1:04pm

Sat Jul 31, 7:04am

Sat Jul 31, 6:04am

Sat Jul 31, 5:04am

Sat Jul 31, 4:04am

Sat Jul 31, 3:04am

Sat Jul 31, 2:04am

Sat Jul 31, 1:04am

Sat Jul 31, 12:04am

Fri Jul 30, 11:04pm

Fri Jul 30, 10:04pm

Fri Jul 30, 9:04pm

Fri Jul 30, 8:05pm

Fri Jul 30, 7:04pm

Fri Jul 30, 6:04pm

Fri Jul 30, 5:04pm

Fri Jul 30, 4:04pm

Fri Jul 30, 3:04pm

Fri Jul 30, 2:04pm

Fri Jul 30, 1:04pm

Fri Jul 30, 12:04pm

Fri Jul 30, 11:04am

Fri Jul 30, 10:04am

Fri Jul 30, 9:04am

Fri Jul 30, 8:04am

Fri Jul 30, 7:04am

Fri Jul 30, 6:04am

Fri Jul 30, 5:04am

Fri Jul 30, 4:04am

Fri Jul 30, 3:04am

Fri Jul 30, 2:04am

Fri Jul 30, 1:04am

Fri Jul 30, 12:04am

Thu Jul 29, 11:04pm

Thu Jul 29, 10:04pm

Thu Jul 29, 9:04pm

Thu Jul 29, 8:04pm

Thu Jul 29, 7:05pm

Thu Jul 29, 6:04pm

Thu Jul 29, 5:05pm

Thu Jul 29, 4:04pm

Thu Jul 29, 3:04pm

Thu Jul 29, 2:05pm

Thu Jul 29, 1:04pm

Thu Jul 29, 12:04pm

Thu Jul 29, 11:04am

Thu Jul 29, 10:04am

Thu Jul 29, 9:04am

Thu Jul 29, 8:04am

Thu Jul 29, 7:04am

Thu Jul 29, 6:04am

Thu Jul 29, 5:04am

Thu Jul 29, 4:04am

Thu Jul 29, 3:04am

Thu Jul 29, 2:04am

Thu Jul 29, 1:04am

Thu Jul 29, 12:04am

Wed Jul 28, 11:04pm

Wed Jul 28, 10:04pm

Wed Jul 28, 9:04pm

Wed Jul 28, 8:04pm

Wed Jul 28, 7:04pm

Wed Jul 28, 6:04pm

Wed Jul 28, 5:04pm

Wed Jul 28, 4:04pm

Wed Jul 28, 3:04pm

Wed Jul 28, 2:04pm

Wed Jul 28, 1:04pm

Wed Jul 28, 12:05pm

Wed Jul 28, 11:04am

Wed Jul 28, 10:04am

Wed Jul 28, 9:04am

Wed Jul 28, 8:04am

Wed Jul 28, 7:04am

Wed Jul 28, 6:04am

Wed Jul 28, 5:04am

Wed Jul 28, 4:04am

Wed Jul 28, 3:04am

Wed Jul 28, 2:04am

Wed Jul 28, 1:04am

Wed Jul 28, 12:04am

Tue Jul 27, 11:04pm

Tue Jul 27, 10:05pm

Tue Jul 27, 9:04pm

Tue Jul 27, 8:04pm

Tue Jul 27, 7:04pm

Tue Jul 27, 6:04pm

Tue Jul 27, 5:04pm

Tue Jul 27, 4:04pm

Tue Jul 27, 3:04pm

Tue Jul 27, 2:04pm

Tue Jul 27, 1:04pm

Tue Jul 27, 12:04pm

Tue Jul 27, 11:04am

Tue Jul 27, 10:04am

Tue Jul 27, 9:04am

Tue Jul 27, 8:04am

Tue Jul 27, 7:04am

Tue Jul 27, 6:04am

Tue Jul 27, 5:04am

Tue Jul 27, 4:04am

Tue Jul 27, 3:04am

Tue Jul 27, 2:04am

Tue Jul 27, 1:04am

Tue Jul 27, 12:05am

Mon Jul 26, 11:04pm

Mon Jul 26, 10:04pm

Mon Jul 26, 9:04pm

Mon Jul 26, 8:05pm

Mon Jul 26, 7:04pm

Mon Jul 26, 6:04pm

Mon Jul 26, 5:04pm

Mon Jul 26, 4:04pm

Mon Jul 26, 3:04pm

Mon Jul 26, 2:04pm

Mon Jul 26, 1:04pm

Mon Jul 26, 12:04pm

Mon Jul 26, 11:04am

Mon Jul 26, 10:05am

Mon Jul 26, 9:04am

Mon Jul 26, 8:04am

Mon Jul 26, 7:04am

Mon Jul 26, 6:04am

Mon Jul 26, 5:04am

Mon Jul 26, 4:04am

Mon Jul 26, 3:04am

Mon Jul 26, 2:04am

Mon Jul 26, 1:04am

Mon Jul 26, 12:04am

Sun Jul 25, 11:04pm

Sun Jul 25, 10:04pm

Sun Jul 25, 9:04pm

Sun Jul 25, 8:05pm

Sun Jul 25, 7:04pm

Sun Jul 25, 6:04pm

Sun Jul 25, 5:04pm

Sun Jul 25, 4:04pm

Sun Jul 25, 3:04pm

Sun Jul 25, 2:04pm

Sun Jul 25, 1:04pm

Sun Jul 25, 12:04pm

Sun Jul 25, 11:04am

Sun Jul 25, 10:04am

Sun Jul 25, 9:04am

Sun Jul 25, 8:05am

Sun Jul 25, 7:04am

Sun Jul 25, 6:04am

Sun Jul 25, 5:04am

Sun Jul 25, 4:04am

Sun Jul 25, 3:04am

Sun Jul 25, 2:04am

Sun Jul 25, 1:04am

Sun Jul 25, 12:04am

Sat Jul 24, 11:04pm

Sat Jul 24, 10:04pm

Sat Jul 24, 9:04pm

Meta data:

ID: df50c50e-1ae9-4454-8cc8-0e62338232f9
Link: https://api.weather.gov/products/df50c50e-1ae9-4454-8cc8-0e62338232f9